Location: Helsinki
(60.1699°N, 24.9384°E)
Time: 23:32:11
(UTC+02:00)

Transit 4A - Pass Details

Date: 29 October 2020
Orbit: 862 x 982 km, 66.8° (Epoch: 25 November)

Event Time Altitude Azimuth Distance (km) Brightness Sun altitude
Rises 19:17:10 0° 275° (W) 3,665 12.6 -21.0°
Reaches altitude 10° 19:19:50 10° 281° (W) 2,729 11.5 -21.3°
Maximum altitude 19:26:01 48° 355° (N) 1,272 8.6 -22.1°
Enters shadow 19:29:00 29° 52° (NE) 1,729 8.9 -22.4°
